Location: Campillo
(40.8621°N, 4.2488°W)
Time: 13:46:13
(UTC+00:00)

SJ-6B - Pass Details

Date: 04 October 2021
Orbit: 508 x 581 km, 97.6° (Epoch: 26 October)

Event Time Altitude Azimuth Distance (km) Brightness Sun altitude
Exits shadow 20:31:11 28° 324° (NW) 1,092 4.7 -30.1°
Drops below altitude 10° 20:33:14 10° 337° (NNW) 1,860 6.0 -30.4°
Sets 20:35:24 0° 343° (NNW) 2,749 6.9 -30.8°
